Francistown, Botswana

5:27 PM CAT on June 23, 2017 (GMT +0200)
Francistown

Weather History for FBFT - April, 2013

Change the Weather History Date:

Sunday, April 7, 2013

  Actual Average Record
Temperature  
Mean Temperature 68 °F -  
Max Temperature 89 °F 80 °F 95 °F (1998)
Min Temperature 47 °F 54 °F 47 °F (2013)
Cooling Degree Days 3    
Growing Degree Days 18 (Base 50)    
Moisture  
Dew Point 47 °F    
Average Humidity 50    
Maximum Humidity 87    
Minimum Humidity 12    
Precipitation  
Precipitation 0.00 in - - ()
Sea Level Pressure  
Sea Level Pressure 30.04 in    
Wind  
Wind Speed 3 mph ()    
Max Wind Speed 12 mph    
Max Gust Speed -    
Visibility 6.0 miles    
Events      
Averages and records for this station are not official NWS values.
T = Trace of Precipitation, MM = Missing Value Source: Averaged Metar Reports

Daily Weather History Graph

Daily Weather History Graph

Search for Another Location

Airport or City:

Trip Planner

Search our weather history database for the weather conditions in past years. The results will help you decide how hot, cold, wet, or windy it might be!

Date:

Astronomy

Apr. 07, 2013 Rise Set
Actual Time 6:19 AM CAT 6:04 PM CAT
Civil Twilight 5:56 AM CAT 6:26 PM CAT
Nautical Twilight 5:31 AM CAT 6:52 PM CAT
Astronomical Twilight 5:05 AM CAT 7:18 PM CAT
Moon 3:29 AM CAT (4/7) 4:02 PM CAT (4/7)
Length of Visible Light 12h 29m
Length of Day
11h 45m
Waning Crescent, 10% of the Moon is Illuminated
Apr 7
Waning Crescent
Apr 10
New
Apr 18
First Quarter
Apr 25
Full
May 2
Last Quarter

Hourly Weather History & Observations

Time (CAT) Temp. Heat Index Dew Point Humidity Pressure Visibility Wind Dir Wind Speed Gust Speed Precip Events Conditions
12:00 AM 57.2 °F - 48.2 °F 72% 30.09 in - Calm Calm - N/A   Clear
1:00 AM 55.4 °F - 48.2 °F 77% 30.09 in - Calm Calm - N/A   Clear
2:00 AM 54 °F - 47 °F 71%  in 6 mi Calm Calm - -   Partly Cloudy
2:00 AM 53.6 °F - 48.2 °F 82% 30.06 in - Calm Calm - N/A   Clear
3:00 AM 55.4 °F - 46.4 °F 72% 30.06 in - Variable 2.3 mph - N/A   Clear
4:00 AM 51.8 °F - 46.4 °F 82% 30.06 in - Calm Calm - N/A   Clear
5:00 AM 50.0 °F - 46.4 °F 87% 30.04 in - NW 3.5 mph - N/A   Clear
6:00 AM 48.2 °F - 44.6 °F 87% 30.06 in - North 4.6 mph - N/A   Clear
7:00 AM 48.2 °F - 44.6 °F 87% 30.09 in - Variable 2.3 mph - N/A   Clear
8:00 AM 59 °F - 49 °F 60%  in 6 mi North 3.5 mph - -  
8:00 AM 59.0 °F - 48.2 °F 67% 30.09 in - North 3.5 mph - N/A   Clear
9:00 AM 73.4 °F - 50.0 °F 44% 30.09 in - Variable 2.3 mph - N/A   Clear
10:00 AM 78.8 °F - 48.2 °F 34% 30.09 in - ENE 3.5 mph - N/A   Clear
11:00 AM 80.6 °F - 46.4 °F 30% 30.09 in - ESE 3.5 mph - N/A   Clear
12:00 PM 84.2 °F - 46.4 °F 27% 30.06 in - SSE 6.9 mph - N/A   Clear
1:00 PM 86.0 °F - 46.4 °F 25% 30.01 in - ESE 10.4 mph - N/A   Clear
2:00 PM 87 °F - 43 °F 12%  in 6 mi SE 8.1 mph - -  
2:00 PM 87.8 °F - 42.8 °F 21% 29.98 in - NNW 8.1 mph - N/A   Clear
3:00 PM 89.6 °F - 46.4 °F 22% 29.98 in - South 8.1 mph - N/A   Clear
4:00 PM 87.8 °F 87.6 °F 60.8 °F 40% 29.95 in - East 8.1 mph - N/A   Clear
5:00 PM 87.8 °F - 44.6 °F 22% 29.95 in - SE 8.1 mph - N/A   Clear
7:00 PM 75.2 °F - 46.4 °F 36% 29.98 in - SE 6.9 mph - N/A   Clear
8:00 PM 75.2 °F - 44.6 °F 34% 30.01 in - Variable 3.5 mph - N/A   Clear
9:00 PM 73.4 °F - 42.8 °F 33% 30.04 in - ESE 5.8 mph - N/A   Clear
10:00 PM 73.4 °F - 46.4 °F 38% 30.04 in - ENE 11.5 mph - N/A   Clear
11:00 PM 71.6 °F - 48.2 °F 43% 30.04 in - NNE 6.9 mph - N/A   Clear